Other Public Products
Issued by NWS Charleston, SC

Current Version | Previous Version | Graphics & Text | Print | Product List | Glossary On
Versions: 1 2 3 4 5 6 7 8 9 10 11 12 13 14 15 16 17 18 19 20 21 22 23 24 25 26 27 28 29 30 31 32 33 34 35 36 37 38 39 40 41 42 43 44 45 46 47 48 49 50
000
FPUS82 KCHS 221927
OPUCHS

TEST...KCHS/KSAV Gateway Observations...TEST
National Weather Service Charleston SC
200 PM EST WED NOV 22 2017

NOTE: "fair" indicates few or no clouds below 12,000 feet with no
significant weather and/or obstructions to visibility.

SCZ050-WAZ558-NCZ071-TXZ119-213-PAZ071-DCZ001-FLZ074-172-MI076-
NYZ176-178-MAZ016-IL014-TNZ027-NJZ106-GAZ044-MD014-222000-

...Gateway Observations for Charleston International...

CITY           SKY/WX    TMP DP  RH WIND       PRES   REMARKS
Chas Airport   MOSUNNY   67  56  67 N6        29.97F
Seattle        CLOUDY    61  57  87 S5        29.99S
Charlotte      MOSUNNY   64  39  39 NE8G18    30.03F
Dallas DFW     PTSUNNY   53  18  25 NW10      30.32F
Dallas Love    PTSUNNY   52  23  32 NW13      30.34F
Philladelphia  MOSUNNY   54  32  43 NW24G32   29.95R
Wash National  MOSUNNY   53  30  41 N25G32    30.03R
Baltimore      MOSUNNY   52  30  43 NW20G30   30.01R
Miami          MOSUNNY   84  68  58 E7        29.89F
Detroit        CLOUDY    36  17  46 NW5       30.26F WCI  32
Newark         MOSUNNY   52  37  56 NW20      29.91R
Laguardia      MOSUNNY   52  39  61 NW21      29.88R
J F K          PTSUNNY   52  40  63 NW22      29.88R
Boston Logan   RAIN      49  47  93 NW12      29.80R FOG
Ft. Lauderdale MOSUNNY   81  69  67 E9        29.89F
Chicago O`Hare MOSUNNY   33  14  45 NW7       30.31F WCI  27
Chicago Midway MOSUNNY   33  14  45 W5G16     30.31F WCI  29
Houston Bush   MOSUNNY   68  49  50 N12       30.19F
Houston Hobby  MOSUNNY   67  50  54 N12       30.17F
Nashville      PTSUNNY   48  25  40 N10       30.24F
Atlanta        PTSUNNY   61  38  42 NW15G22   30.04F

$$

GAZ044-118-TXZ119-213-NCZ071-DCZ001-MDZ014-506-PAZ021-071-NJZ106-
NYZ176-178-MAZ106-OHZ011-021-055-MIZ076-KYZ091-ILZ014-INZ047-
MNZ060-ONZ431-222000-

...Gateway Observations for Savannah International...

CITY           SKY/WX    TMP DP  RH WIND       PRES   REMARKS
Savannah Arpt  PTSUNNY   67  58  72 N8        29.99F
Atlanta        PTSUNNY   61  38  42 NW15G22   30.04F
Charlotte      MOSUNNY   64  39  39 NE8G18    30.03F
Dallas DFW     PTSUNNY   53  18  25 NW10      30.32F
Houston Bush   MOSUNNY   68  49  50 N12       30.19F
Wash National  MOSUNNY   53  30  41 N25G32    30.03R
Wash Dulles    MOSUNNY   51  29  42 N21G26    30.04R
Baltimore      MOSUNNY   52  30  43 NW20G30   30.01R
Philadelphia   MOSUNNY   54  32  43 NW24G32   29.95R
Newark         MOSUNNY   52  37  56 NW20      29.91R
Laguardia      MOSUNNY   52  39  61 NW21      29.88R
J F K          PTSUNNY   52  40  63 NW22      29.88R
Boston         RAIN      49  47  93 NW12      29.80R FOG
Pittsburg      CLOUDY    34  25  69 NW13      30.18S WCI  25
Akron          CLOUDY    33  20  58 NW9       30.21S WCI  25
Cleveland      CLOUDY    34  20  56 W10       30.26F WCI  26
Cincinnati     PTSUNNY   40  27  59 N8        30.27F WCI  34
Columbus       CLOUDY    35  24  63 CALM      30.26S
Detroit        CLOUDY    36  17  46 NW5       30.26F WCI  32
Chicago O`Hare MOSUNNY   33  14  45 NW7       30.31F WCI  27
Minneapolis    CLOUDY    24  13  62 S8        30.19F WCI  15
Indianapolis   MOSUNNY   38  23  55 N7        30.30F WCI  33
Toronto Canada MOSUNNY   30  14  51 NW16G22   30.15S WCI  19

$$




USA.gov is the U.S. government's official web portal to all federal, state and local government web resources and services.